Flag for U.S.A. Weather past 2 weeks in Citrus Heights, California, U.S.A.

Now
77 °F

Sunny.


Feels Like: 79 °F
Forecast: 59 / 84 °F
Wind: 14 mph from Southwest

Location: Mather Field

Current Time: Aug 20, 2014 at 2:22:23 PM

Latest Report: Aug 20, 2014 at 1:45 PM


Visibility: 10 mi

Pressure: 29.88 "Hg

Humidity: 47%

Dew point: 55 °F

Location of Citrus HeightsLocation

Historic Weather in Citrus Heights — Graph

°F

Citrus Heights temperature yesterday

Maximum temperature yesterday: 82 °F (at 2:45 PM)
Minimum temperature yesterday: 57 °F (at 3:45 AM)
Average temperature yesterday: 69 °F

Past Weeks' High & Low Weather Summary

 TemperatureHumidityPressure
High95 °F (Aug 11, 3:45 PM)100% (Aug 10, 4:45 AM)30.04 "Hg (Aug 10, 4:45 AM)
Low54 °F (Aug 10, 4:45 AM)15% (Aug 17, 5:46 PM)29.72 "Hg (Aug 18, 5:48 PM)
Average74 °F55%29.89 "Hg
* Reported Aug 5 12:48 PM — Aug 20 12:50 PM, Citrus Heights, Weather by CustomWeather, © 2014

Note: Actual official high and low records may vary slightly from our data, if they occured in-between our weather recording intervals... More about our weather records

Advertising

Citrus Heights weather history for previous 24 hours

 ConditionsComfort  
Time TempWeatherWind HumidityBarometerVisibility
12:50 PM
Aug 20
75 °FPassing clouds.10 mph54%29.90 "Hg10 mi
11:50 AM73 °FPassing clouds.12 mph57%29.91 "Hg10 mi
10:55 AM72 °FScattered clouds.12 mph61%29.91 "Hg10 mi
9:50 AM68 °FPartly sunny.12 mph69%29.90 "Hg10 mi
8:50 AM64 °FPartly sunny.9 mph78%29.89 "Hg10 mi
7:55 AM63 °FPartly sunny.9 mph88%29.88 "Hg10 mi
6:45 AM59 °FPassing clouds.6 mph100%29.85 "Hg10 mi
5:46 AM59 °FPassing clouds.5 mph100%29.84 "Hg10 mi
4:46 AM61 °FPassing clouds.10 mph94%29.83 "Hg10 mi
3:46 AM61 °FPassing clouds.12 mph94%29.83 "Hg10 mi
2:46 AM59 °FPassing clouds.10 mph100%29.82 "Hg10 mi
10:45 PM
Aug 19
63 °FClear.7 mph83%29.81 "Hg10 mi
9:45 PM64 °FClear.7 mph78%29.80 "Hg10 mi
8:45 PM66 °FSunny.9 mph73%29.77 "Hg10 mi
7:45 PM73 °FSunny.10 mph57%29.75 "Hg10 mi
6:45 PM77 °FSunny.12 mph51%29.74 "Hg10 mi
5:58 PM82 °FPassing clouds.13 mph40%29.73 "Hg10 mi
3:45 PM82 °FPassing clouds.12 mph40%29.74 "Hg10 mi
2:45 PM82 °FPassing clouds.9 mph40%29.77 "Hg10 mi
Weather by CustomWeather, © 2014

See weather overviewHow to use our weather pages